Tracking 23731 objects as of 27-Sep-2021
HD Live streaming from Space Station
objects crossing your sky now

CZ-3B DEB

Track CZ-3B DEB now!


NORAD ID: 40841
Int'l Code: 2011-077W
Perigee: 811.8 km
Apogee: 40,827.7 km
Inclination: 26.7 °
Period: 743.7 minutes
Semi major axis: 27190 km
RCS: Unknown
Launch date: December 19, 2011
Source: People's Republic of China (PRC)
Launch site: Xichang Space Center, China (XSC)

Note: This is SATELLITE DEBRIS
aabbcc
Your satellite tracking list
Your tracking list is empty




NASA's NSSDC Master Catalog

Two Line Element Set (TLE):
1 40841U 11077W   21266.49130615 -.00000226  00000-0  82249-4 0  9999
2 40841  26.6595 103.8165 7358375 310.8925   5.5448  1.93629471 54447
Source of the keplerian elements: AFSPC